Location: ??????
(42.0089°N, 44.3281°E)
Time: 12:10:15
(UTC+00:00)

NOSS 8 (H) - Visible Passes

Search period start: 29 May 2022 00:00
Search period end: 08 June 2022 00:00
Orbit: 367 x 1782 km, 63.3° (Epoch: 28 May)

Date Brightness Start Highest point End Pass type
(mag) Time Alt. Az. Time Alt. Az. Time Alt. Az.
29 May 5.9 18:22:19 10° NNW 18:25:53 38° NE 18:28:10 24° ESE visible
29 May 6.9 20:12:14 10° WNW 20:14:55 23° WSW 20:14:55 23° WSW visible
30 May 6.9 17:29:13 10° N 17:31:56 18° NE 17:35:13 10° E visible
30 May 5.6 19:17:53 10° NW 19:21:50 51° WSW 19:22:36 46° SSW visible
31 May 5.2 18:24:03 10° NNW 18:27:55 72° NE 18:30:19 30° SE visible
31 May 7.6 20:15:30 10° W 20:17:04 13° WSW 20:17:04 13° WSW visible
01 Jun 6.1 17:30:33 10° NNW 17:33:59 32° NE 17:38:02 12° ESE visible
01 Jun 6.6 19:20:10 10° WNW 19:23:52 28° WSW 19:24:47 27° SW visible
02 Jun 5.4 18:25:55 10° NW 18:29:51 62° WSW 18:32:33 27° SSE visible
03 Jun 5.3 17:32:05 10° NNW 17:35:53 59° NE 17:40:20 14° SE visible
03 Jun 7.4 19:22:57 10° W 19:25:48 16° WSW 19:27:05 15° SW visible
04 Jun 6.5 18:27:56 10° WNW 18:31:44 34° WSW 18:34:54 19° S visible
05 Jun 5.3 17:33:44 10° NW 17:37:40 74° SW 17:42:45 12° SSE visible
06 Jun 7.3 18:30:20 10° WNW 18:33:33 19° WSW 18:37:25 10° SSW visible
07 Jun 6.3 17:35:32 10° NW 17:39:25 40° WSW 17:44:47 10° S visible
